Precipitable_Water
0.62 0.64 0.66 0.70 0.72 0.75 0.74 0.72 0.71 0.71 0.71 0.67 0.63 0.61 0.58 0.57 0.58 0.60 0.61 0.62 0.63 0.62 0.61 0.58 0.56 0.55 0.55 0.58 0.63 0.66 0.68 0.61 0.55 0.47 0.46 0.49 0.55 0.55 0.44 0.44 0.42 0.39 0.36 0.34 0.39 0.39 0.35 0.35 0.33 0.33 0.29 0.24 0.22 0.20 0.26 0.25 0.27 0.25 0.20 0.19 0.17 0.20 0.25 0.30 0.30 0.31 0.46 0.51 0.69 0.66 0.61 0.50 0.51 0.71 0.78 0.83 0.78 0.77 0.85 0.81 0.93 0.98 0.97 0.99 1.06 1.14 1.15 1.16
0.60 0.62 0.64 0.68 0.71 0.73 0.72 0.71 0.69 0.69 0.70 0.68 0.64 0.60 0.58 0.58 0.60 0.63 0.64 0.63 0.62 0.61 0.59 0.57 0.56 0.56 0.58 0.60 0.65 0.66 0.63 0.58 0.48 0.48 0.42 0.50 0.49 0.44 0.40 0.39 0.37 0.36 0.41 0.39 0.39 0.38 0.35 0.34 0.35 0.35 0.31 0.26 0.25 0.20 0.24 0.21 0.25 0.20 0.19 0.18 0.16 0.22 0.29 0.31 0.31 0.30 0.38 0.43 0.57 0.67 0.73 0.55 0.58 0.66 0.74 0.58 0.73 0.75 0.73 0.83 0.90 0.87 0.96 1.04 1.08 1.12 1.14 1.16
0.57 0.59 0.61 0.66 0.71 0.71 0.70 0.70 0.69 0.68 0.69 0.68 0.64 0.60 0.57 0.58 0.62 0.64 0.64 0.64 0.62 0.58 0.56 0.56 0.57 0.59 0.60 0.63 0.66 0.66 0.61 0.50 0.47 0.35 0.40 0.45 0.41 0.38 0.41 0.39 0.39 0.39 0.42 0.39 0.40 0.39 0.36 0.36 0.37 0.35 0.32 0.28 0.28 0.21 0.21 0.20 0.22 0.22 0.19 0.16 0.16 0.24 0.27 0.28 0.28 0.30 0.50 0.51 0.63 0.64 0.71 0.60 0.72 0.68 0.72 0.59 0.68 0.74 0.67 0.72 0.84 0.83 0.85 0.95 1.00 1.07 1.11 1.14
0.53 0.56 0.58 0.64 0.68 0.70 0.68 0.68 0.68 0.67 0.68 0.68 0.64 0.59 0.57 0.58 0.62 0.63 0.64 0.63 0.60 0.57 0.56 0.56 0.57 0.59 0.61 0.62 0.63 0.64 0.60 0.46 0.30 0.32 0.33 0.33 0.37 0.40 0.42 0.39 0.42 0.44 0.42 0.40 0.40 0.39 0.41 0.40 0.39 0.37 0.33 0.29 0.28 0.26 0.22 0.22 0.19 0.22 0.20 0.17 0.17 0.24 0.26 0.26 0.34 0.53 0.69 0.68 0.71 0.69 0.74 0.60 0.74 0.75 0.64 0.67 0.60 0.69 0.75 0.84 0.77 0.77 0.86 0.92 0.99 1.03 1.10 1.10
0.49 0.53 0.56 0.60 0.65 0.68 0.68 0.67 0.67 0.66 0.66 0.67 0.63 0.59 0.56 0.58 0.61 0.62 0.62 0.61 0.58 0.56 0.55 0.56 0.57 0.57 0.57 0.58 0.57 0.63 0.48 0.30 0.28 0.35 0.37 0.36 0.36 0.39 0.40 0.40 0.40 0.40 0.38 0.39 0.41 0.41 0.41 0.40 0.39 0.37 0.33 0.28 0.29 0.27 0.24 0.24 0.23 0.21 0.19 0.21 0.21 0.26 0.25 0.26 0.37 0.57 0.55 0.65 0.64 0.65 0.54 0.62 0.86 0.81 0.75 0.62 0.52 0.59 0.70 0.82 0.86 0.86 0.92 0.95 0.94 0.98 1.04 1.04
0.46 0.49 0.53 0.56 0.61 0.65 0.66 0.67 0.66 0.65 0.65 0.65 0.61 0.58 0.56 0.57 0.60 0.61 0.60 0.58 0.56 0.56 0.55 0.55 0.56 0.55 0.57 0.58 0.64 0.58 0.45 0.17 0.32 0.33 0.35 0.32 0.34 0.37 0.40 0.43 0.46 0.45 0.43 0.41 0.40 0.40 0.40 0.38 0.37 0.31 0.29 0.27 0.27 0.24 0.26 0.26 0.26 0.19 0.20 0.21 0.22 0.26 0.24 0.27 0.45 0.56 0.53 0.58 0.53 0.51 0.63 0.77 0.69 0.68 0.79 0.69 0.62 0.74 0.87 0.89 0.91 0.91 0.98 1.04 1.07 1.03 1.01 1.03
0.44 0.46 0.48 0.53 0.56 0.60 0.63 0.65 0.65 0.64 0.64 0.63 0.59 0.56 0.55 0.56 0.58 0.59 0.57 0.56 0.56 0.55 0.54 0.54 0.56 0.58 0.56 0.62 0.64 0.56 0.39 0.37 0.38 0.36 0.32 0.31 0.33 0.37 0.40 0.43 0.45 0.41 0.40 0.37 0.37 0.36 0.37 0.35 0.35 0.31 0.29 0.29 0.29 0.28 0.29 0.28 0.27 0.24 0.20 0.21 0.22 0.26 0.25 0.33 0.50 0.56 0.55 0.51 0.56 0.67 0.80 0.59 0.59 0.55 0.84 0.68 0.81 0.86 0.93 0.96 0.94 0.95 0.97 1.04 1.01 1.03 1.00 1.03
0.43 0.44 0.47 0.49 0.53 0.57 0.60 0.63 0.63 0.63 0.62 0.62 0.57 0.54 0.54 0.56 0.56 0.56 0.54 0.54 0.54 0.54 0.55 0.56 0.57 0.58 0.59 0.54 0.49 0.40 0.34 0.31 0.38 0.37 0.30 0.31 0.33 0.36 0.40 0.42 0.41 0.41 0.39 0.37 0.36 0.34 0.35 0.31 0.28 0.30 0.29 0.26 0.26 0.26 0.25 0.24 0.25 0.23 0.22 0.23 0.24 0.26 0.25 0.47 0.56 0.56 0.58 0.59 0.69 0.70 0.59 0.69 0.65 0.68 0.77 0.71 0.82 0.88 0.92 0.97 0.95 0.96 0.97 0.98 0.99 1.01 1.01 1.01
0.43 0.45 0.46 0.47 0.50 0.54 0.57 0.60 0.62 0.62 0.61 0.60 0.56 0.53 0.54 0.56 0.55 0.53 0.52 0.53 0.54 0.55 0.56 0.57 0.56 0.58 0.59 0.55 0.42 0.36 0.27 0.39 0.39 0.36 0.32 0.32 0.33 0.37 0.41 0.37 0.41 0.38 0.37 0.37 0.36 0.34 0.33 0.29 0.29 0.29 0.25 0.26 0.27 0.25 0.25 0.24 0.21 0.24 0.23 0.24 0.24 0.25 0.41 0.60 0.59 0.60 0.58 0.64 0.62 0.55 0.60 0.70 0.74 0.84 0.73 0.81 0.84 0.90 0.93 0.92 0.93 0.94 0.94 0.97 0.99 1.01 1.01 1.00
0.43 0.45 0.46 0.47 0.49 0.53 0.56 0.58 0.60 0.60 0.59 0.58 0.54 0.52 0.54 0.54 0.53 0.52 0.53 0.54 0.55 0.56 0.56 0.57 0.58 0.57 0.52 0.46 0.42 0.27 0.33 0.42 0.40 0.40 0.38 0.35 0.35 0.35 0.37 0.37 0.38 0.36 0.34 0.33 0.34 0.32 0.30 0.30 0.29 0.31 0.29 0.27 0.27 0.25 0.26 0.24 0.22 0.25 0.24 0.24 0.24 0.25 0.43 0.55 0.45 0.54 0.60 0.62 0.55 0.52 0.63 0.66 0.72 0.66 0.61 0.89 0.90 0.92 0.89 0.88 0.92 0.90 0.91 0.96 0.99 1.02 1.03 1.01
0.41 0.45 0.47 0.48 0.50 0.53 0.55 0.57 0.58 0.59 0.58 0.56 0.54 0.53 0.54 0.54 0.54 0.53 0.54 0.54 0.55 0.56 0.56 0.57 0.60 0.58 0.45 0.46 0.31 0.28 0.40 0.40 0.41 0.40 0.41 0.41 0.40 0.36 0.32 0.34 0.36 0.34 0.34 0.33 0.31 0.31 0.30 0.31 0.32 0.31 0.29 0.25 0.26 0.25 0.26 0.25 0.25 0.25 0.25 0.25 0.25 0.26 0.38 0.52 0.51 0.51 0.53 0.59 0.60 0.54 0.61 0.69 0.71 0.63 0.61 0.81 0.91 0.92 0.82 0.83 0.85 0.87 0.90 0.95 0.98 1.01 1.04 1.03
0.38 0.42 0.46 0.48 0.50 0.53 0.55 0.57 0.57 0.56 0.56 0.55 0.53 0.54 0.55 0.54 0.54 0.55 0.53 0.54 0.55 0.55 0.57 0.59 0.61 0.58 0.51 0.42 0.33 0.31 0.42 0.39 0.41 0.40 0.41 0.41 0.38 0.37 0.36 0.35 0.36 0.34 0.33 0.30 0.31 0.32 0.31 0.31 0.32 0.29 0.25 0.29 0.24 0.27 0.26 0.27 0.25 0.25 0.26 0.24 0.25 0.26 0.26 0.51 0.46 0.44 0.45 0.53 0.54 0.51 0.54 0.59 0.61 0.54 0.74 0.86 0.94 0.90 0.84 0.83 0.86 0.86 0.90 0.95 0.97 1.01 1.03 1.01
0.37 0.42 0.46 0.48 0.49 0.53 0.55 0.56 0.55 0.55 0.54 0.53 0.55 0.55 0.55 0.55 0.55 0.56 0.56 0.54 0.56 0.57 0.58 0.58 0.60 0.58 0.49 0.33 0.32 0.40 0.44 0.41 0.39 0.40 0.39 0.40 0.38 0.39 0.38 0.37 0.36 0.35 0.34 0.31 0.30 0.31 0.30 0.32 0.31 0.28 0.29 0.27 0.26 0.23 0.26 0.27 0.25 0.26 0.26 0.25 0.24 0.24 0.24 0.26 0.48 0.44 0.40 0.47 0.46 0.38 0.31 0.56 0.63 0.69 0.77 0.87 0.88 0.88 0.82 0.81 0.87 0.90 0.90 0.92 0.95 0.99 0.99 1.00
0.36 0.41 0.45 0.46 0.48 0.52 0.54 0.54 0.54 0.54 0.53 0.53 0.55 0.55 0.55 0.55 0.56 0.58 0.58 0.57 0.59 0.62 0.63 0.65 0.65 0.59 0.49 0.35 0.44 0.44 0.41 0.41 0.39 0.37 0.36 0.37 0.36 0.33 0.36 0.36 0.33 0.33 0.33 0.31 0.30 0.31 0.31 0.32 0.31 0.29 0.30 0.26 0.24 0.29 0.27 0.26 0.26 0.23 0.25 0.26 0.23 0.23 0.22 0.27 0.37 0.49 0.37 0.43 0.49 0.42 0.35 0.49 0.62 0.76 0.86 0.87 0.87 0.81 0.75 0.80 0.85 0.88 0.92 0.91 0.95 0.94 0.91 0.92
0.36 0.40 0.45 0.46 0.48 0.51 0.53 0.53 0.53 0.53 0.53 0.53 0.54 0.56 0.57 0.58 0.59 0.61 0.62 0.61 0.64 0.66 0.67 0.68 0.66 0.53 0.41 0.36 0.47 0.44 0.45 0.39 0.33 0.32 0.33 0.32 0.30 0.29 0.30 0.33 0.31 0.31 0.31 0.31 0.30 0.30 0.33 0.32 0.30 0.27 0.25 0.28 0.28 0.26 0.25 0.25 0.25 0.25 0.23 0.22 0.24 0.22 0.24 0.27 0.28 0.31 0.34 0.48 0.41 0.38 0.38 0.49 0.61 0.77 0.85 0.86 0.81 0.80 0.76 0.81 0.86 0.88 0.92 0.95 0.95 0.93 0.91 0.91
0.35 0.40 0.45 0.46 0.48 0.51 0.52 0.52 0.52 0.53 0.53 0.54 0.55 0.58 0.60 0.60 0.62 0.64 0.66 0.64 0.67 0.69 0.71 0.58 0.58 0.53 0.39 0.30 0.34 0.43 0.36 0.31 0.28 0.32 0.33 0.33 0.29 0.25 0.28 0.30 0.31 0.30 0.31 0.31 0.33 0.31 0.31 0.31 0.27 0.27 0.27 0.28 0.25 0.25 0.24 0.23 0.23 0.26 0.24 0.23 0.23 0.24 0.24 0.25 0.27 0.29 0.31 0.35 0.36 0.30 0.36 0.54 0.61 0.78 0.83 0.83 0.77 0.75 0.73 0.80 0.86 0.88 0.91 0.91 0.92 0.92 0.91 0.89
0.35 0.37 0.44 0.46 0.48 0.50 0.52 0.52 0.53 0.55 0.55 0.56 0.59 0.60 0.62 0.64 0.66 0.71 0.74 0.74 0.72 0.72 0.63 0.50 0.56 0.56 0.31 0.38 0.51 0.32 0.29 0.28 0.32 0.30 0.33 0.34 0.33 0.32 0.31 0.32 0.32 0.30 0.30 0.30 0.32 0.31 0.29 0.27 0.28 0.27 0.28 0.25 0.26 0.26 0.23 0.22 0.21 0.22 0.24 0.22 0.24 0.24 0.24 0.22 0.26 0.29 0.31 0.33 0.36 0.40 0.40 0.50 0.57 0.72 0.77 0.80 0.76 0.71 0.70 0.74 0.82 0.88 0.90 0.90 0.90 0.90 0.88 0.84
0.35 0.36 0.43 0.46 0.47 0.49 0.51 0.52 0.54 0.58 0.63 0.66 0.70 0.74 0.72 0.73 0.73 0.71 0.68 0.68 0.71 0.71 0.68 0.64 0.57 0.47 0.37 0.45 0.26 0.26 0.29 0.30 0.29 0.28 0.30 0.34 0.35 0.33 0.33 0.32 0.32 0.33 0.32 0.29 0.30 0.29 0.28 0.25 0.27 0.23 0.26 0.26 0.26 0.26 0.23 0.21 0.22 0.21 0.22 0.21 0.22 0.24 0.25 0.25 0.24 0.27 0.36 0.36 0.36 0.41 0.40 0.45 0.58 0.67 0.72 0.77 0.79 0.73 0.71 0.73 0.78 0.85 0.87 0.88 0.90 0.87 0.82 0.80
0.35 0.35 0.42 0.45 0.47 0.49 0.51 0.52 0.54 0.60 0.68 0.72 0.77 0.83 0.87 0.88 0.89 0.80 0.64 0.68 0.60 0.48 0.41 0.42 0.40 0.26 0.22 0.29 0.34 0.33 0.31 0.33 0.35 0.35 0.30 0.31 0.32 0.34 0.35 0.35 0.34 0.31 0.29 0.29 0.27 0.28 0.27 0.25 0.26 0.25 0.23 0.25 0.25 0.24 0.23 0.26 0.25 0.24 0.24 0.24 0.24 0.22 0.24 0.25 0.28 0.31 0.31 0.39 0.35 0.36 0.35 0.45 0.56 0.64 0.72 0.78 0.81 0.75 0.75 0.79 0.80 0.84 0.87 0.86 0.87 0.85 0.77 0.76
0.36 0.34 0.40 0.45 0.47 0.49 0.51 0.52 0.55 0.61 0.66 0.65 0.72 0.75 0.71 0.64 0.61 0.54 0.61 0.61 0.52 0.46 0.42 0.44 0.46 0.38 0.37 0.33 0.31 0.33 0.37 0.38 0.32 0.33 0.35 0.35 0.32 0.30 0.30 0.31 0.32 0.32 0.29 0.26 0.29 0.30 0.29 0.23 0.23 0.23 0.24 0.26 0.26 0.25 0.27 0.29 0.29 0.27 0.27 0.26 0.25 0.25 0.26 0.28 0.30 0.33 0.33 0.32 0.37 0.36 0.40 0.44 0.51 0.59 0.68 0.75 0.80 0.76 0.76 0.76 0.79 0.80 0.78 0.76 0.79 0.78 0.79 0.74
0.36 0.34 0.38 0.45 0.48 0.50 0.52 0.52 0.54 0.59 0.65 0.67 0.69 0.64 0.47 0.53 0.48 0.44 0.52 0.52 0.56 0.54 0.50 0.46 0.46 0.41 0.31 0.34 0.34 0.33 0.31 0.33 0.36 0.33 0.33 0.34 0.32 0.30 0.27 0.29 0.28 0.26 0.27 0.29 0.27 0.29 0.30 0.25 0.24 0.27 0.27 0.26 0.26 0.26 0.29 0.29 0.28 0.28 0.27 0.28 0.27 0.26 0.25 0.29 0.30 0.33 0.34 0.29 0.35 0.40 0.40 0.44 0.52 0.60 0.68 0.76 0.77 0.73 0.71 0.71 0.72 0.72 0.75 0.75 0.76 0.73 0.72 0.72
0.37 0.34 0.36 0.44 0.49 0.51 0.53 0.52 0.54 0.60 0.66 0.69 0.67 0.55 0.59 0.59 0.67 0.73 0.66 0.47 0.51 0.52 0.53 0.49 0.48 0.43 0.40 0.37 0.36 0.38 0.37 0.32 0.32 0.32 0.34 0.35 0.31 0.28 0.27 0.27 0.25 0.24 0.27 0.27 0.27 0.25 0.25 0.25 0.26 0.27 0.26 0.25 0.25 0.26 0.29 0.25 0.27 0.28 0.27 0.28 0.28 0.27 0.30 0.32 0.33 0.35 0.35 0.31 0.36 0.42 0.37 0.44 0.51 0.58 0.66 0.68 0.66 0.68 0.68 0.68 0.68 0.67 0.67 0.70 0.73 0.70 0.72 0.69
0.37 0.35 0.33 0.41 0.49 0.53 0.55 0.56 0.57 0.64 0.66 0.64 0.59 0.59 0.57 0.69 0.78 0.81 0.72 0.56 0.48 0.54 0.52 0.49 0.44 0.38 0.35 0.38 0.35 0.37 0.31 0.28 0.27 0.31 0.31 0.32 0.28 0.26 0.26 0.25 0.25 0.25 0.25 0.25 0.24 0.25 0.24 0.26 0.28 0.26 0.23 0.22 0.24 0.25 0.26 0.27 0.28 0.28 0.26 0.26 0.25 0.28 0.27 0.25 0.30 0.33 0.34 0.31 0.31 0.38 0.37 0.45 0.53 0.56 0.61 0.65 0.61 0.60 0.66 0.68 0.69 0.70 0.65 0.65 0.66 0.66 0.65 0.63
0.37 0.36 0.34 0.36 0.47 0.54 0.57 0.61 0.65 0.63 0.59 0.64 0.62 0.58 0.67 0.75 0.75 0.71 0.59 0.46 0.44 0.51 0.54 0.53 0.52 0.42 0.38 0.35 0.37 0.37 0.31 0.30 0.29 0.27 0.31 0.26 0.23 0.27 0.26 0.27 0.26 0.25 0.24 0.26 0.26 0.23 0.26 0.29 0.30 0.27 0.23 0.22 0.24 0.24 0.25 0.26 0.26 0.28 0.27 0.26 0.27 0.28 0.28 0.27 0.27 0.29 0.31 0.31 0.33 0.32 0.32 0.36 0.48 0.48 0.56 0.62 0.62 0.58 0.60 0.65 0.67 0.73 0.72 0.73 0.75 0.72 0.71 0.65
0.37 0.36 0.35 0.33 0.41 0.53 0.59 0.70 0.63 0.63 0.72 0.69 0.63 0.72 0.77 0.79 0.75 0.73 0.54 0.49 0.53 0.52 0.66 0.51 0.54 0.46 0.44 0.46 0.43 0.36 0.34 0.32 0.30 0.31 0.31 0.27 0.23 0.24 0.26 0.31 0.28 0.24 0.25 0.28 0.28 0.25 0.25 0.27 0.23 0.21 0.21 0.22 0.25 0.24 0.25 0.27 0.25 0.27 0.28 0.28 0.29 0.30 0.29 0.29 0.29 0.28 0.26 0.25 0.27 0.28 0.24 0.27 0.38 0.48 0.47 0.53 0.58 0.58 0.60 0.57 0.58 0.63 0.68 0.69 0.66 0.66 0.69 0.67
0.38 0.37 0.35 0.33 0.38 0.49 0.64 0.59 0.57 0.67 0.67 0.61 0.66 0.74 0.75 0.75 0.77 0.78 0.57 0.46 0.39 0.50 0.54 0.42 0.54 0.42 0.54 0.47 0.42 0.37 0.35 0.28 0.33 0.34 0.33 0.30 0.31 0.29 0.28 0.27 0.27 0.22 0.25 0.27 0.27 0.28 0.27 0.27 0.24 0.21 0.22 0.25 0.25 0.25 0.27 0.29 0.27 0.26 0.28 0.31 0.30 0.30 0.30 0.29 0.28 0.27 0.23 0.21 0.26 0.30 0.23 0.22 0.34 0.36 0.46 0.49 0.52 0.52 0.59 0.56 0.57 0.60 0.63 0.65 0.65 0.66 0.66 0.67
0.39 0.37 0.36 0.33 0.35 0.50 0.51 0.42 0.66 0.69 0.53 0.59 0.72 0.73 0.69 0.72 0.76 0.75 0.52 0.43 0.39 0.50 0.45 0.49 0.51 0.54 0.55 0.48 0.39 0.36 0.19 0.25 0.36 0.36 0.32 0.34 0.30 0.32 0.28 0.25 0.27 0.27 0.27 0.30 0.25 0.26 0.29 0.29 0.26 0.23 0.24 0.25 0.25 0.25 0.28 0.29 0.27 0.25 0.31 0.31 0.30 0.29 0.27 0.26 0.26 0.26 0.25 0.26 0.28 0.28 0.25 0.22 0.25 0.32 0.40 0.45 0.48 0.48 0.52 0.55 0.57 0.60 0.63 0.65 0.66 0.67 0.68 0.69
0.40 0.38 0.36 0.34 0.34 0.50 0.50 0.60 0.58 0.54 0.56 0.68 0.76 0.70 0.68 0.72 0.80 0.87 0.58 0.29 0.30 0.54 0.45 0.51 0.53 0.63 0.51 0.47 0.42 0.32 0.29 0.31 0.27 0.28 0.28 0.32 0.32 0.28 0.28 0.25 0.25 0.25 0.26 0.24 0.19 0.29 0.30 0.29 0.26 0.26 0.25 0.25 0.26 0.28 0.29 0.29 0.27 0.29 0.32 0.30 0.27 0.27 0.25 0.24 0.25 0.25 0.24 0.23 0.22 0.25 0.29 0.24 0.26 0.32 0.39 0.41 0.38 0.42 0.44 0.49 0.55 0.59 0.62 0.65 0.67 0.70 0.72 0.73
0.40 0.38 0.36 0.34 0.34 0.48 0.61 0.55 0.51 0.52 0.69 0.77 0.74 0.69 0.69 0.73 0.76 0.61 0.41 0.29 0.49 0.55 0.70 0.49 0.68 0.57 0.51 0.47 0.42 0.40 0.36 0.33 0.23 0.27 0.29 0.30 0.32 0.28 0.24 0.24 0.26 0.27 0.28 0.24 0.20 0.27 0.31 0.29 0.31 0.29 0.27 0.26 0.30 0.31 0.32 0.30 0.26 0.29 0.32 0.31 0.30 0.29 0.26 0.24 0.24 0.23 0.23 0.21 0.19 0.23 0.29 0.22 0.24 0.30 0.32 0.38 0.37 0.38 0.41 0.46 0.53 0.57 0.60 0.63 0.67 0.72 0.75 0.77
0.40 0.38 0.37 0.35 0.30 0.51 0.50 0.54 0.52 0.66 0.78 0.79 0.74 0.72 0.81 0.72 0.64 0.46 0.35 0.28 0.56 0.45 0.57 0.59 0.52 0.48 0.51 0.42 0.41 0.42 0.36 0.29 0.28 0.28 0.29 0.30 0.30 0.32 0.29 0.32 0.28 0.27 0.28 0.28 0.27 0.29 0.29 0.34 0.27 0.27 0.26 0.31 0.32 0.32 0.33 0.31 0.29 0.30 0.29 0.26 0.27 0.26 0.25 0.27 0.26 0.25 0.24 0.19 0.21 0.25 0.29 0.26 0.21 0.28 0.31 0.30 0.33 0.36 0.42 0.47 0.52 0.58 0.60 0.63 0.66 0.69 0.72 0.73
0.39 0.37 0.37 0.37 0.24 0.28 0.36 0.39 0.49 0.68 0.73 0.75 0.73 0.71 0.79 0.71 0.47 0.38 0.30 0.42 0.55 0.55 0.61 0.56 0.50 0.54 0.45 0.39 0.37 0.41 0.36 0.30 0.28 0.25 0.23 0.30 0.28 0.30 0.30 0.27 0.31 0.30 0.31 0.29 0.27 0.31 0.31 0.31 0.26 0.25 0.28 0.30 0.33 0.30 0.30 0.31 0.30 0.25 0.25 0.23 0.22 0.22 0.24 0.23 0.24 0.25 0.18 0.17 0.26 0.31 0.30 0.31 0.20 0.26 0.33 0.36 0.39 0.39 0.43 0.44 0.50 0.55 0.58 0.61 0.64 0.66 0.68 0.70
0.39 0.36 0.36 0.35 0.32 0.34 0.19 0.21 0.39 0.61 0.67 0.73 0.72 0.67 0.63 0.39 0.49 0.34 0.34 0.67 0.40 0.53 0.46 0.48 0.53 0.49 0.44 0.43 0.39 0.39 0.34 0.28 0.29 0.28 0.22 0.23 0.24 0.25 0.25 0.20 0.25 0.20 0.24 0.26 0.28 0.32 0.29 0.28 0.29 0.30 0.29 0.28 0.28 0.27 0.25 0.26 0.26 0.25 0.24 0.24 0.19 0.21 0.21 0.19 0.21 0.17 0.18 0.18 0.27 0.33 0.33 0.27 0.25 0.28 0.32 0.36 0.38 0.40 0.43 0.45 0.48 0.52 0.57 0.59 0.62 0.65 0.66 0.69
0.39 0.36 0.37 0.44 0.41 0.29 0.28 0.30 0.48 0.63 0.70 0.72 0.68 0.67 0.47 0.34 0.29 0.42 0.44 0.50 0.43 0.54 0.47 0.50 0.44 0.44 0.42 0.37 0.38 0.41 0.38 0.28 0.31 0.26 0.26 0.27 0.24 0.27 0.30 0.27 0.26 0.26 0.22 0.28 0.27 0.26 0.28 0.31 0.29 0.28 0.32 0.31 0.27 0.24 0.21 0.22 0.24 0.25 0.27 0.26 0.21 0.18 0.19 0.17 0.20 0.23 0.22 0.26 0.32 0.31 0.36 0.25 0.29 0.29 0.33 0.34 0.39 0.42 0.44 0.46 0.50 0.53 0.56 0.58 0.61 0.64 0.67 0.68
0.40 0.37 0.32 0.43 0.43 0.45 0.40 0.42 0.53 0.64 0.66 0.72 0.65 0.49 0.42 0.31 0.33 0.54 0.47 0.50 0.48 0.58 0.51 0.42 0.42 0.42 0.37 0.31 0.39 0.41 0.33 0.33 0.27 0.25 0.25 0.25 0.25 0.24 0.26 0.28 0.27 0.26 0.28 0.26 0.24 0.27 0.21 0.23 0.29 0.30 0.26 0.29 0.26 0.31 0.28 0.30 0.28 0.29 0.31 0.27 0.26 0.24 0.21 0.17 0.20 0.17 0.19 0.22 0.28 0.35 0.26 0.23 0.22 0.28 0.36 0.38 0.41 0.44 0.47 0.48 0.50 0.53 0.55 0.56 0.60 0.63 0.65 0.64
0.42 0.36 0.37 0.36 0.52 0.57 0.52 0.51 0.60 0.68 0.68 0.59 0.50 0.38 0.28 0.31 0.43 0.42 0.45 0.49 0.52 0.49 0.40 0.44 0.41 0.41 0.39 0.40 0.42 0.42 0.39 0.28 0.31 0.29 0.26 0.25 0.24 0.25 0.24 0.25 0.28 0.29 0.26 0.18 0.26 0.26 0.25 0.23 0.31 0.33 0.33 0.30 0.28 0.31 0.33 0.30 0.29 0.32 0.33 0.33 0.27 0.25 0.31 0.22 0.25 0.23 0.23 0.22 0.20 0.24 0.23 0.28 0.28 0.39 0.41 0.41 0.42 0.44 0.47 0.47 0.50 0.51 0.53 0.55 0.56 0.57 0.59 0.62
0.40 0.34 0.39 0.27 0.53 0.56 0.63 0.61 0.69 0.70 0.59 0.45 0.34 0.29 0.31 0.41 0.40 0.51 0.48 0.56 0.53 0.45 0.41 0.40 0.47 0.42 0.41 0.39 0.43 0.42 0.41 0.34 0.33 0.27 0.24 0.24 0.27 0.25 0.28 0.29 0.27 0.27 0.20 0.17 0.24 0.21 0.23 0.23 0.33 0.33 0.32 0.29 0.27 0.27 0.31 0.32 0.20 0.28 0.29 0.26 0.28 0.34 0.30 0.26 0.26 0.28 0.26 0.21 0.17 0.26 0.25 0.29 0.37 0.37 0.39 0.41 0.40 0.42 0.44 0.46 0.47 0.47 0.49 0.50 0.50 0.53 0.56 0.60
0.37 0.40 0.33 0.39 0.59 0.68 0.73 0.69 0.69 0.67 0.54 0.41 0.32 0.28 0.43 0.49 0.55 0.55 0.58 0.51 0.50 0.49 0.43 0.32 0.40 0.42 0.37 0.37 0.40 0.43 0.44 0.39 0.33 0.25 0.22 0.27 0.25 0.31 0.29 0.30 0.31 0.29 0.29 0.26 0.22 0.24 0.19 0.23 0.32 0.32 0.27 0.32 0.31 0.27 0.30 0.31 0.29 0.27 0.24 0.27 0.35 0.39 0.35 0.27 0.19 0.21 0.19 0.16 0.18 0.24 0.22 0.23 0.25 0.22 0.37 0.36 0.36 0.40 0.42 0.44 0.46 0.49 0.50 0.48 0.49 0.51 0.54 0.58
0.42 0.48 0.63 0.60 0.61 0.70 0.79 0.74 0.66 0.54 0.46 0.34 0.28 0.39 0.55 0.47 0.61 0.58 0.59 0.52 0.51 0.49 0.39 0.37 0.43 0.48 0.42 0.40 0.41 0.43 0.44 0.35 0.35 0.32 0.25 0.28 0.25 0.36 0.31 0.30 0.33 0.32 0.32 0.30 0.21 0.21 0.23 0.20 0.28 0.33 0.33 0.34 0.35 0.30 0.27 0.29 0.31 0.24 0.26 0.34 0.24 0.23 0.21 0.28 0.23 0.17 0.16 0.15 0.17 0.20 0.24 0.23 0.24 0.24 0.30 0.32 0.34 0.37 0.40 0.44 0.45 0.47 0.49 0.49 0.50 0.53 0.56 0.58
0.50 0.58 0.56 0.72 0.82 0.83 0.83 0.76 0.59 0.47 0.35 0.27 0.31 0.38 0.51 0.55 0.61 0.58 0.58 0.58 0.56 0.50 0.40 0.42 0.39 0.49 0.49 0.43 0.44 0.46 0.45 0.35 0.39 0.36 0.29 0.30 0.26 0.34 0.32 0.34 0.32 0.36 0.34 0.30 0.23 0.23 0.23 0.16 0.23 0.33 0.31 0.33 0.32 0.28 0.19 0.20 0.27 0.28 0.28 0.26 0.32 0.23 0.19 0.17 0.18 0.20 0.18 0.15 0.15 0.18 0.21 0.19 0.26 0.27 0.30 0.32 0.36 0.38 0.40 0.42 0.42 0.44 0.47 0.49 0.50 0.52 0.54 0.55
0.45 0.53 0.55 0.83 0.90 0.88 0.84 0.69 0.47 0.42 0.35 0.30 0.43 0.47 0.60 0.54 0.58 0.63 0.63 0.57 0.48 0.45 0.43 0.39 0.43 0.40 0.44 0.45 0.46 0.42 0.46 0.43 0.40 0.38 0.35 0.35 0.32 0.40 0.34 0.38 0.34 0.36 0.37 0.34 0.28 0.29 0.21 0.23 0.17 0.25 0.31 0.31 0.25 0.30 0.26 0.26 0.24 0.25 0.24 0.24 0.28 0.26 0.34 0.25 0.27 0.22 0.21 0.19 0.19 0.18 0.17 0.22 0.29 0.35 0.33 0.34 0.36 0.38 0.40 0.40 0.42 0.44 0.47 0.51 0.52 0.53 0.54 0.56
0.58 0.51 0.62 0.94 0.93 0.96 0.86 0.64 0.46 0.40 0.41 0.53 0.55 0.52 0.57 0.56 0.60 0.62 0.62 0.61 0.52 0.57 0.48 0.42 0.40 0.35 0.39 0.40 0.41 0.46 0.44 0.44 0.44 0.39 0.39 0.37 0.36 0.31 0.39 0.38 0.38 0.35 0.37 0.33 0.30 0.30 0.24 0.23 0.15 0.20 0.22 0.22 0.24 0.31 0.30 0.30 0.31 0.27 0.25 0.26 0.29 0.27 0.26 0.21 0.20 0.33 0.30 0.23 0.20 0.19 0.18 0.25 0.32 0.38 0.36 0.36 0.38 0.37 0.40 0.41 0.42 0.43 0.47 0.52 0.54 0.55 0.55 0.56
0.48 0.40 0.58 0.91 1.03 0.91 0.66 0.48 0.47 0.54 0.49 0.46 0.47 0.56 0.56 0.64 0.57 0.57 0.59 0.60 0.56 0.52 0.59 0.50 0.48 0.42 0.40 0.40 0.41 0.44 0.45 0.42 0.43 0.41 0.41 0.38 0.43 0.39 0.41 0.45 0.40 0.40 0.36 0.31 0.31 0.38 0.34 0.30 0.23 0.16 0.19 0.23 0.27 0.32 0.32 0.31 0.33 0.36 0.35 0.32 0.36 0.33 0.30 0.25 0.19 0.25 0.30 0.29 0.30 0.28 0.23 0.24 0.35 0.38 0.37 0.36 0.37 0.39 0.39 0.40 0.40 0.44 0.48 0.51 0.53 0.54 0.55 0.54
0.52 0.52 0.79 0.88 0.93 0.83 0.61 0.44 0.45 0.44 0.44 0.52 0.62 0.59 0.62 0.58 0.55 0.59 0.52 0.57 0.52 0.56 0.52 0.50 0.48 0.42 0.42 0.40 0.41 0.42 0.45 0.42 0.44 0.41 0.42 0.43 0.43 0.45 0.47 0.46 0.45 0.42 0.42 0.38 0.41 0.40 0.42 0.29 0.23 0.21 0.22 0.24 0.31 0.35 0.36 0.38 0.36 0.32 0.34 0.36 0.32 0.25 0.30 0.30 0.28 0.30 0.25 0.26 0.23 0.24 0.20 0.24 0.34 0.39 0.38 0.37 0.37 0.39 0.41 0.42 0.42 0.44 0.48 0.51 0.54 0.56 0.56 0.56
0.60 0.56 0.61 0.84 0.95 0.81 0.53 0.39 0.33 0.38 0.46 0.50 0.59 0.58 0.63 0.59 0.58 0.57 0.56 0.58 0.53 0.51 0.49 0.48 0.49 0.49 0.41 0.44 0.41 0.38 0.43 0.36 0.46 0.44 0.42 0.46 0.44 0.53 0.53 0.50 0.49 0.43 0.42 0.40 0.34 0.43 0.28 0.33 0.26 0.20 0.18 0.18 0.23 0.31 0.32 0.34 0.35 0.32 0.32 0.35 0.34 0.33 0.33 0.33 0.31 0.32 0.21 0.21 0.20 0.17 0.12 0.16 0.28 0.36 0.39 0.40 0.39 0.39 0.40 0.42 0.43 0.42 0.46 0.49 0.52 0.54 0.56 0.57
0.67 0.71 0.68 0.70 0.83 0.76 0.54 0.50 0.43 0.42 0.45 0.45 0.44 0.46 0.53 0.56 0.64 0.63 0.58 0.52 0.56 0.53 0.50 0.49 0.49 0.50 0.45 0.45 0.41 0.43 0.45 0.40 0.38 0.46 0.46 0.47 0.47 0.54 0.54 0.52 0.52 0.48 0.51 0.52 0.45 0.45 0.33 0.31 0.27 0.18 0.16 0.14 0.12 0.17 0.21 0.25 0.29 0.33 0.34 0.34 0.36 0.34 0.33 0.29 0.24 0.28 0.23 0.27 0.28 0.23 0.22 0.28 0.35 0.38 0.40 0.41 0.41 0.40 0.41 0.42 0.43 0.43 0.43 0.47 0.50 0.53 0.56 0.57
0.58 0.43 0.58 0.64 0.67 0.68 0.67 0.69 0.61 0.52 0.48 0.46 0.43 0.47 0.53 0.52 0.61 0.65 0.62 0.52 0.55 0.56 0.54 0.52 0.51 0.48 0.44 0.43 0.40 0.40 0.40 0.46 0.40 0.41 0.44 0.44 0.47 0.51 0.54 0.54 0.53 0.52 0.53 0.53 0.50 0.44 0.35 0.36 0.31 0.26 0.22 0.20 0.23 0.28 0.36 0.37 0.34 0.28 0.31 0.32 0.33 0.35 0.38 0.35 0.32 0.27 0.24 0.28 0.26 0.27 0.26 0.26 0.30 0.35 0.37 0.39 0.38 0.37 0.38 0.40 0.40 0.41 0.44 0.48 0.49 0.51 0.53 0.54
0.68 0.46 0.50 0.47 0.61 0.62 0.60 0.61 0.58 0.55 0.47 0.51 0.40 0.46 0.46 0.48 0.52 0.53 0.64 0.49 0.56 0.54 0.53 0.52 0.50 0.44 0.45 0.43 0.41 0.39 0.43 0.41 0.48 0.44 0.44 0.44 0.49 0.50 0.56 0.55 0.56 0.56 0.55 0.51 0.51 0.46 0.38 0.31 0.32 0.31 0.28 0.27 0.29 0.32 0.37 0.37 0.31 0.32 0.32 0.32 0.35 0.34 0.35 0.32 0.29 0.26 0.34 0.29 0.22 0.29 0.31 0.27 0.28 0.34 0.37 0.38 0.39 0.40 0.41 0.42 0.42 0.42 0.44 0.45 0.47 0.49 0.51 0.53
0.42 0.52 0.59 0.67 0.53 0.49 0.50 0.51 0.56 0.55 0.57 0.57 0.51 0.53 0.47 0.47 0.49 0.46 0.57 0.60 0.60 0.59 0.48 0.53 0.49 0.49 0.46 0.43 0.42 0.37 0.40 0.40 0.42 0.40 0.46 0.47 0.46 0.50 0.48 0.53 0.50 0.54 0.52 0.49 0.53 0.45 0.39 0.32 0.35 0.32 0.30 0.31 0.32 0.31 0.34 0.35 0.34 0.33 0.33 0.33 0.33 0.34 0.34 0.31 0.29 0.30 0.32 0.28 0.24 0.29 0.32 0.28 0.29 0.33 0.37 0.39 0.40 0.40 0.41 0.42 0.42 0.43 0.45 0.46 0.48 0.49 0.50 0.51
0.61 0.59 0.57 0.71 0.53 0.59 0.57 0.60 0.62 0.58 0.54 0.55 0.53 0.53 0.47 0.47 0.46 0.52 0.51 0.53 0.56 0.54 0.54 0.42 0.45 0.46 0.48 0.48 0.43 0.39 0.42 0.35 0.36 0.44 0.43 0.44 0.44 0.44 0.43 0.48 0.52 0.56 0.53 0.48 0.49 0.50 0.43 0.37 0.39 0.38 0.33 0.33 0.33 0.32 0.33 0.30 0.31 0.31 0.31 0.32 0.33 0.32 0.31 0.30 0.28 0.29 0.29 0.28 0.30 0.30 0.29 0.28 0.30 0.31 0.34 0.36 0.39 0.41 0.42 0.44 0.44 0.44 0.45 0.47 0.49 0.49 0.50 0.52
0.54 0.55 0.49 0.61 0.58 0.56 0.59 0.58 0.57 0.55 0.49 0.54 0.46 0.50 0.48 0.48 0.46 0.51 0.55 0.52 0.47 0.50 0.58 0.46 0.47 0.50 0.50 0.49 0.47 0.41 0.45 0.46 0.45 0.40 0.48 0.45 0.45 0.46 0.43 0.44 0.45 0.52 0.52 0.48 0.48 0.52 0.42 0.36 0.42 0.41 0.35 0.33 0.35 0.35 0.34 0.33 0.30 0.26 0.27 0.28 0.28 0.28 0.29 0.31 0.33 0.32 0.33 0.32 0.32 0.31 0.29 0.28 0.34 0.38 0.36 0.37 0.37 0.38 0.38 0.40 0.42 0.44 0.46 0.48 0.50 0.50 0.50 0.52
0.71 0.76 0.72 0.56 0.45 0.49 0.53 0.53 0.52 0.51 0.46 0.49 0.46 0.49 0.48 0.50 0.48 0.51 0.51 0.57 0.52 0.49 0.52 0.48 0.52 0.52 0.53 0.50 0.49 0.49 0.53 0.52 0.51 0.50 0.51 0.50 0.42 0.50 0.44 0.45 0.50 0.43 0.47 0.45 0.47 0.47 0.44 0.38 0.44 0.40 0.32 0.31 0.35 0.35 0.34 0.34 0.33 0.30 0.26 0.25 0.26 0.27 0.28 0.32 0.32 0.35 0.34 0.31 0.31 0.32 0.29 0.28 0.36 0.41 0.41 0.39 0.38 0.38 0.38 0.40 0.43 0.46 0.49 0.50 0.49 0.50 0.51 0.53
0.75 0.79 0.76 0.63 0.46 0.51 0.45 0.51 0.52 0.49 0.42 0.52 0.50 0.51 0.48 0.49 0.53 0.54 0.48 0.56 0.58 0.58 0.56 0.54 0.55 0.52 0.50 0.49 0.47 0.50 0.56 0.57 0.57 0.58 0.58 0.57 0.57 0.54 0.54 0.52 0.51 0.45 0.43 0.42 0.48 0.42 0.42 0.39 0.35 0.35 0.30 0.29 0.36 0.36 0.34 0.32 0.29 0.24 0.25 0.30 0.32 0.34 0.35 0.37 0.39 0.40 0.38 0.38 0.33 0.31 0.32 0.38 0.40 0.42 0.39 0.39 0.39 0.39 0.39 0.39 0.41 0.44 0.48 0.50 0.51 0.53 0.54 0.55
Wind_Speed
16 15 15 15 15 15 15 15 15 15 14 13 12 11 10 9 8 7 6 6 6 6 6 7 7 7 7 7 7 8 8 7 7 8 8 8 8 8 8 8 8 8 8 7 6 6 6 6 7 7 6 7 8 9 10 10 11 9 8 8 7 8 8 7 5 4 6 6 6 7 6 7 6 5 4 1 3 2 2 2 2 2 2 2 3 3 3 3
16 16 15 15 15 15 15 16 16 15 15 14 13 11 10 9 8 7 7 6 6 6 7 7 7 7 8 7 7 8 7 7 7 8 8 8 8 7 7 7 7 7 7 6 6 6 7 7 7 6 7 7 8 9 9 10 10 9 8 8 8 9 9 7 6 6 8 8 6 5 6 6 6 6 5 2 1 1 1 1 1 1 1 1 2 2 2 2
17 16 16 16 15 16 16 16 16 16 15 14 13 12 10 9 8 7 7 7 7 7 7 7 7 7 7 7 7 7 7 7 7 7 7 7 6 6 5 6 6 6 6 7 7 7 8 9 8 7 8 8 9 9 8 9 10 10 9 8 9 9 8 7 5 5 7 6 5 4 4 4 4 5 4 4 3 1 1 2 2 1 2 2 2 2 2 2
17 17 16 16 16 16 16 16 16 16 16 14 13 11 10 8 7 7 7 7 7 6 6 6 7 7 7 8 7 7 7 6 6 6 6 5 4 4 4 5 5 5 6 6 7 8 9 10 9 9 9 9 10 9 9 9 9 10 9 8 9 9 8 6 3 4 6 5 4 4 3 2 3 4 4 5 3 2 2 2 3 3 3 4 3 3 3 2
17 17 17 16 16 16 16 17 17 17 16 15 13 11 9 8 7 7 7 7 6 6 6 6 6 7 7 8 7 6 6 5 6 6 5 4 3 4 4 4 4 4 5 5 6 7 8 9 9 9 9 9 10 8 9 11 10 9 9 10 10 9 8 6 7 8 7 7 5 3 2 2 2 2 2 3 3 4 3 3 3 3 3 3 4 4 3 3
17 18 18 17 17 16 17 17 17 17 16 14 13 11 9 7 7 7 7 6 6 5 5 5 6 6 7 7 6 6 5 4 6 6 4 4 3 3 3 3 2 3 3 4 5 5 6 7 6 8 8 8 9 9 9 11 11 9 9 10 11 11 8 6 9 10 8 8 5 4 3 3 2 2 3 0 1 4 4 4 3 2 3 3 3 4 4 4
17 18 18 18 17 17 17 17 17 17 16 14 12 10 9 7 7 7 6 5 5 4 4 5 5 6 7 7 5 6 5 5 6 6 4 3 3 3 3 2 2 2 3 4 5 5 5 6 7 8 8 7 9 10 10 11 13 11 9 9 10 11 10 9 12 10 8 7 6 5 4 3 2 2 3 1 1 3 4 4 4 3 3 3 3 4 5 4
18 18 18 18 17 17 17 17 17 16 15 13 12 10 8 7 7 6 5 4 4 4 4 4 5 6 7 7 6 6 6 5 5 6 4 3 3 2 2 2 2 2 3 4 5 5 6 7 8 7 7 8 8 10 10 10 11 12 11 9 8 8 8 12 13 10 8 8 7 7 4 3 3 2 3 2 3 3 3 4 4 3 4 4 4 4 5 5
18 18 18 18 18 17 17 17 16 16 15 13 11 10 8 7 7 6 5 4 3 4 4 4 5 6 7 7 6 6 6 4 5 6 5 4 3 3 3 2 2 2 3 4 4 4 5 7 7 6 7 8 7 9 8 7 8 10 11 10 9 7 8 13 13 10 9 8 8 6 5 5 5 3 4 4 4 3 3 3 3 4 4 5 5 5 5 4
18 18 18 18 18 17 17 17 16 15 14 12 11 9 8 7 6 5 4 3 3 4 4 4 5 6 7 7 7 6 5 4 5 6 6 5 5 4 3 3 3 3 3 4 4 4 4 6 7 6 7 7 7 9 7 7 8 9 10 9 8 7 9 13 12 10 9 8 8 6 6 6 7 7 6 7 6 4 3 2 3 4 4 5 5 5 5 4
18 18 18 19 18 17 17 17 16 15 13 12 10 9 8 7 6 5 4 3 4 4 4 4 5 6 7 7 6 5 5 4 4 5 5 5 6 6 4 3 3 4 4 4 5 5 4 5 6 5 6 7 7 8 8 8 9 8 8 8 5 5 9 11 11 12 10 8 7 5 4 4 6 7 6 8 7 6 5 3 4 4 5 6 6 6 5 5
18 18 19 19 18 17 17 16 15 14 13 12 10 9 8 7 5 5 4 4 4 4 4 5 5 6 7 7 6 5 4 4 3 4 4 5 6 6 5 4 3 3 3 4 5 6 6 5 4 4 6 6 5 7 7 8 8 7 7 8 6 6 9 10 11 12 10 11 8 4 4 5 6 7 7 8 7 6 5 5 5 4 5 6 6 6 5 5
18 19 19 18 18 17 16 16 15 14 13 11 10 9 8 7 5 5 4 4 3 4 4 5 5 6 6 6 6 6 4 3 4 4 4 5 5 6 6 5 4 3 3 4 6 6 5 4 3 4 5 5 5 6 7 8 8 7 7 9 8 7 8 8 9 11 10 12 11 8 8 7 7 7 8 8 7 6 5 5 5 5 6 6 7 7 5 5
18 18 19 18 18 17 16 15 14 13 13 11 10 8 8 7 6 5 4 4 4 4 5 5 6 6 6 6 6 6 4 3 4 4 5 4 5 6 5 5 5 4 3 4 5 5 3 2 2 3 4 5 5 5 5 6 7 7 7 8 8 8 8 8 8 8 8 10 8 7 8 9 10 8 8 7 6 6 5 5 5 6 6 6 7 7 6 5
18 18 19 18 17 17 16 15 14 13 12 11 10 8 8 7 6 5 5 5 5 5 5 6 6 5 6 6 5 6 5 4 4 4 5 4 5 5 5 5 5 5 4 4 4 3 1 0 1 1 3 4 3 3 4 5 6 7 7 8 9 9 8 8 7 6 6 7 5 5 7 9 10 10 8 7 6 6 5 6 6 6 6 6 7 7 6 6
18 18 19 18 17 16 15 14 13 13 12 11 10 9 8 7 6 5 5 5 5 4 5 6 5 5 5 5 5 5 5 3 3 4 5 5 5 5 5 5 5 5 4 4 4 3 2 1 0 1 2 2 1 2 3 4 6 7 8 9 10 10 9 8 7 5 6 7 7 5 7 8 10 10 9 8 7 6 5 6 7 7 7 7 7 7 7 6
18 18 18 18 17 16 15 14 13 12 11 10 10 9 9 8 7 6 6 6 5 4 5 5 5 4 4 5 5 4 4 3 4 4 5 5 5 6 6 5 5 5 4 4 4 3 3 2 1 2 2 2 1 0 1 2 4 6 7 8 9 11 10 9 8 6 4 6 6 5 7 7 8 9 9 9 7 6 6 7 8 8 8 8 8 8 7 7
18 18 18 18 16 15 14 13 12 11 11 11 10 9 9 8 7 6 6 6 5 5 5 5 4 4 4 4 4 3 3 4 4 4 4 4 4 6 6 5 6 5 5 5 3 3 3 3 2 2 2 3 1 1 1 1 3 4 6 7 8 10 10 9 9 7 4 4 6 5 6 6 7 8 9 9 7 6 7 7 9 10 9 9 9 8 8 7
18 18 18 17 16 15 14 13 12 11 11 12 12 11 9 8 7 5 5 6 5 5 4 4 3 3 3 3 3 3 3 3 5 5 4 3 4 5 6 6 5 5 4 4 4 3 2 3 3 2 2 2 0 1 1 2 3 4 4 5 8 10 11 10 8 7 4 4 6 6 6 7 7 8 8 8 8 7 7 7 9 10 10 9 9 9 8 8
18 18 18 17 16 15 14 13 11 11 11 12 12 11 9 9 7 6 7 7 5 4 5 4 4 3 4 3 3 3 3 3 4 4 4 4 5 5 6 6 6 4 3 2 3 2 2 3 3 2 2 2 1 1 2 2 2 3 1 2 6 9 11 11 8 7 4 3 7 8 7 8 8 8 8 7 7 6 7 8 9 10 10 10 10 9 9 8
18 18 17 16 16 15 14 13 11 11 11 11 11 9 8 8 6 6 8 8 6 5 5 6 5 5 4 3 3 2 3 3 4 4 4 4 5 5 6 6 5 5 3 1 1 2 3 3 3 2 2 2 2 1 2 2 2 2 1 1 4 8 9 9 7 6 4 3 6 7 6 8 8 7 7 7 6 6 7 8 10 10 11 11 10 10 9 8
17 17 17 16 15 14 13 13 12 11 10 11 10 8 7 7 6 6 7 7 7 5 5 5 5 4 3 3 3 2 3 3 4 4 4 4 4 4 5 6 5 4 2 1 2 4 4 3 3 3 2 2 2 2 3 2 2 3 2 3 3 7 7 6 6 4 3 3 4 6 5 8 8 7 7 8 8 7 8 10 10 10 11 11 11 11 10 8
17 17 17 16 15 14 13 13 12 10 10 11 10 8 8 8 7 8 7 6 6 5 5 5 4 3 3 3 3 2 3 3 2 3 5 5 4 4 5 5 5 4 2 3 2 4 3 2 3 3 2 2 2 1 3 2 2 2 2 3 3 4 6 5 5 3 2 3 4 4 3 5 7 7 7 9 8 7 8 10 11 11 11 11 11 10 10 10
17 17 16 16 15 14 13 13 11 10 10 10 8 9 9 8 8 8 6 5 5 5 4 4 3 2 3 3 3 2 3 3 2 3 5 5 4 3 4 4 6 7 5 3 3 3 2 2 2 2 3 2 3 2 3 3 2 2 2 2 3 4 5 5 4 3 2 2 4 3 2 3 6 7 7 8 7 6 7 9 9 10 9 9 10 9 8 9
17 16 16 16 14 14 13 11 10 10 10 8 8 10 9 9 9 7 6 5 4 5 3 3 3 2 2 3 2 3 3 3 3 2 3 5 3 2 3 4 6 7 5 4 5 4 2 2 2 2 2 1 3 2 2 3 2 2 2 2 4 4 4 4 4 3 1 1 4 4 2 2 5 7 8 7 6 6 7 9 9 9 8 9 9 8 7 8
16 16 16 15 14 14 12 9 10 10 9 8 9 11 10 9 9 7 5 4 4 4 3 3 2 2 4 4 3 3 3 3 3 2 3 3 3 2 2 3 4 5 4 3 4 4 3 4 4 2 1 2 2 1 1 2 2 2 3 4 4 4 4 5 6 4 3 3 4 4 3 2 3 5 7 7 7 7 7 9 10 9 9 9 10 9 8 8
16 16 15 15 14 12 9 8 10 10 8 9 10 11 11 9 8 6 4 4 4 4 3 2 2 3 5 4 3 2 3 3 3 3 2 1 3 3 2 2 3 3 3 3 4 3 3 5 5 3 2 2 2 1 1 2 3 2 3 4 4 4 5 6 7 6 5 3 2 2 3 2 3 4 6 7 7 7 8 10 11 10 10 10 10 9 9 8
16 16 15 14 13 11 8 8 10 9 8 9 11 11 10 8 7 5 3 3 3 3 2 3 3 4 4 3 2 2 2 2 1 4 3 1 1 3 1 1 2 2 3 4 3 2 3 4 2 3 3 2 1 1 1 3 2 2 3 3 2 2 3 5 7 6 4 2 2 4 2 2 3 4 5 6 7 8 10 11 11 11 10 10 10 10 10 9
16 15 14 13 12 9 8 8 9 9 9 10 11 10 8 7 6 4 3 2 4 3 2 3 4 4 5 4 4 5 4 2 1 3 2 1 1 1 1 1 1 2 2 3 3 1 3 3 1 3 3 1 1 2 2 3 2 2 1 1 1 2 1 4 5 4 2 1 3 5 3 2 4 5 5 6 7 9 10 10 11 12 11 10 9 9 10 10
15 14 13 12 11 9 8 9 8 9 10 10 10 9 8 7 5 4 3 3 3 4 4 4 4 5 6 5 5 5 4 3 3 2 1 1 1 1 1 1 1 2 3 3 3 1 3 4 2 3 3 2 1 1 1 2 2 0 2 1 1 1 1 2 2 2 1 1 4 5 4 2 3 5 5 6 7 8 8 9 10 11 10 10 9 9 9 10
14 14 13 11 9 9 9 8 9 9 10 10 9 8 7 6 4 3 2 3 4 5 5 4 5 6 5 4 4 4 3 4 3 2 2 3 1 2 1 2 2 2 3 3 2 2 4 4 3 2 2 1 2 0 1 0 1 1 2 1 0 1 1 0 1 0 1 3 4 4 4 2 3 5 5 6 7 6 7 8 9 9 10 9 9 9 9 9
13 13 12 10 9 9 8 8 9 9 9 8 8 7 5 4 4 3 4 4 4 4 5 5 6 7 7 6 5 4 3 4 4 3 3 3 2 2 1 1 1 2 2 1 2 3 3 2 1 1 1 1 3 1 1 1 1 2 1 1 1 1 1 1 3 2 2 4 4 4 3 3 5 6 6 6 6 5 6 7 8 8 9 8 8 9 8 8
13 12 11 9 8 8 8 8 9 9 9 8 6 6 4 3 4 4 4 5 4 4 5 6 7 8 7 6 5 4 3 4 4 4 4 2 2 3 2 2 0 2 0 0 2 3 2 2 1 2 2 1 3 3 1 1 1 0 1 0 2 1 1 2 3 2 3 4 5 4 3 4 5 5 5 5 6 5 6 8 9 8 8 8 8 8 8 8
13 11 9 8 8 8 8 8 8 8 8 7 5 5 5 4 5 5 4 4 4 5 6 7 8 7 5 4 4 3 3 4 5 4 3 2 1 2 2 2 1 1 0 1 1 1 2 2 1 1 1 0 3 4 3 2 1 1 1 1 2 2 1 2 3 2 3 4 4 3 2 2 3 3 4 4 5 5 5 7 7 7 7 7 7 7 8 8
12 10 8 8 7 7 7 7 7 6 7 6 5 4 4 4 5 4 4 5 5 6 7 7 6 5 3 3 4 3 2 4 4 3 3 3 2 3 3 3 2 1 1 1 1 0 1 1 2 1 1 1 2 3 3 1 1 2 1 1 1 2 2 2 2 3 2 2 3 3 3 3 3 4 5 2 1 2 3 4 4 4 5 5 5 7 8 8
10 8 7 7 6 6 6 6 6 5 5 5 4 4 4 4 5 4 4 5 5 6 7 6 4 3 2 2 2 3 3 3 4 3 4 4 3 4 4 3 4 2 0 1 3 2 1 2 3 2 1 2 3 4 3 2 1 2 1 1 2 1 1 1 2 2 1 2 3 3 4 6 5 5 6 3 0 1 2 3 3 3 4 5 6 7 8 8
9 8 7 7 6 6 5 5 5 5 5 4 4 4 5 5 4 4 4 5 5 5 4 4 3 2 1 1 2 4 3 3 4 4 5 5 4 4 4 4 4 4 3 3 3 3 2 3 4 3 3 4 3 2 3 3 3 2 2 2 2 1 1 1 1 3 2 3 5 4 4 6 4 4 5 3 2 3 3 3 4 4 4 5 6 8 8 9
9 8 7 7 6 5 5 4 4 4 5 4 4 5 4 4 4 4 3 4 5 5 3 2 3 2 1 2 3 4 3 3 4 4 5 5 4 5 4 4 4 4 3 2 3 3 2 3 5 4 3 4 3 1 3 5 3 3 4 3 2 2 2 2 2 3 3 4 5 5 5 4 3 4 5 5 4 5 5 4 4 5 5 5 6 8 8 8
9 7 6 6 6 5 4 4 4 5 4 4 4 4 4 4 4 3 3 4 4 4 3 3 3 3 3 3 4 5 3 3 4 3 3 4 5 5 5 5 4 4 3 2 2 4 3 2 5 5 3 4 3 2 3 5 4 4 4 4 4 4 4 4 4 4 3 4 5 6 5 4 5 6 6 6 6 5 5 5 6 7 7 7 7 7 8 8
8 6 6 6 6 5 5 5 5 4 3 3 3 4 4 3 3 3 4 4 4 3 3 3 3 4 4 4 4 4 4 4 4 3 2 3 4 5 5 4 4 3 3 2 2 3 3 3 5 6 4 3 4 4 4 4 5 5 5 5 5 5 5 5 6 5 4 4 5 6 6 7 8 7 6 7 7 5 6 6 7 8 8 8 8 8 9 9
7 6 6 7 6 6 6 5 5 4 3 4 3 4 4 3 3 4 4 4 4 3 3 3 2 3 4 4 4 4 4 4 5 3 3 3 3 4 4 4 4 4 3 3 4 4 4 5 7 8 7 6 7 7 6 6 6 5 6 7 6 6 6 6 7 7 6 5 6 6 8 10 9 7 7 7 7 7 7 7 8 9 9 9 9 9 9 9
6 5 6 7 7 7 5 5 5 4 3 4 4 4 3 3 3 4 4 4 4 4 4 3 3 3 3 4 4 4 4 4 4 3 3 3 3 4 5 4 3 3 3 5 7 7 6 5 7 9 9 9 10 9 8 7 6 5 6 7 7 7 7 6 7 8 7 7 8 7 8 10 10 8 8 8 8 8 9 9 9 9 9 10 10 10 10 10
6 6 6 7 7 5 4 5 6 5 4 5 5 5 3 3 4 4 4 4 4 4 4 4 3 3 3 4 4 4 5 5 5 4 4 4 4 5 6 4 3 4 4 6 8 8 6 6 7 9 9 10 10 9 7 5 3 5 7 7 7 8 8 8 9 9 9 9 9 8 9 11 11 10 9 10 9 8 8 9 10 10 10 10 10 10 10 10
6 6 6 6 5 4 4 5 5 5 5 6 5 5 5 4 4 4 5 5 4 3 3 4 4 3 4 4 4 5 5 5 6 5 5 5 5 5 5 4 4 5 6 7 7 7 7 7 7 7 8 8 8 8 7 6 5 6 8 9 8 8 8 8 9 8 10 11 9 8 10 12 12 10 10 10 10 9 9 9 10 10 11 11 11 11 10 9
6 6 6 5 4 4 4 5 5 6 7 6 6 6 6 5 5 5 5 6 5 4 3 4 5 4 5 4 4 5 4 5 6 6 5 6 6 5 5 4 5 6 6 6 6 7 7 8 7 6 7 7 8 8 9 9 9 8 9 10 10 8 8 8 9 8 10 11 10 9 11 12 12 11 11 11 11 11 12 11 11 11 11 12 11 11 10 10
6 6 6 6 4 3 4 5 4 5 7 6 6 7 6 5 6 5 5 5 5 4 4 5 5 5 5 4 4 5 4 4 4 5 5 6 6 6 5 5 5 5 6 6 6 7 7 8 8 8 8 9 10 11 11 11 11 11 12 12 12 11 9 9 9 10 11 11 12 13 13 13 14 13 13 14 12 12 13 12 11 11 12 12 12 11 11 11
6 6 6 5 5 4 4 4 4 5 7 6 6 7 6 6 7 6 5 6 5 5 5 6 5 5 5 4 4 4 5 4 4 4 5 5 6 6 6 5 5 6 6 7 8 7 6 8 8 8 9 11 11 12 13 12 12 13 13 13 14 14 12 12 13 14 13 13 14 15 13 13 14 14 14 14 13 12 13 14 13 12 12 12 12 11 11 11
7 7 6 6 6 5 5 6 7 7 8 8 7 7 7 7 7 7 7 7 6 6 6 7 7 6 5 5 4 5 6 5 5 5 5 6 6 7 7 7 7 7 7 8 8 7 6 8 8 8 9 11 11 12 12 12 13 14 14 14 15 15 15 15 16 16 14 15 17 16 15 15 16 15 15 15 15 14 15 15 14 13 13 12 12 11 11 10
8 8 8 7 8 8 8 9 9 8 9 9 8 8 8 8 8 9 8 7 7 8 6 6 8 8 6 5 4 5 6 5 6 7 7 7 7 7 7 8 8 8 7 7 8 7 6 8 8 7 9 11 11 12 12 11 13 14 15 16 16 16 17 17 17 16 15 17 17 16 17 17 17 17 17 18 18 18 17 16 15 14 13 12 11 11 11 10
8 9 10 10 10 10 10 10 9 8 8 8 8 9 8 8 9 9 9 7 8 9 7 7 9 8 7 5 4 5 6 6 6 8 7 7 8 8 8 8 8 8 8 8 8 8 7 9 9 7 8 11 11 11 11 11 13 14 15 15 15 16 16 16 16 15 15 17 17 17 17 17 16 16 17 18 18 17 17 17 16 14 13 12 11 11 11 11
10 10 10 10 10 11 10 10 10 9 9 8 8 9 9 9 9 9 9 9 9 9 8 8 9 8 7 6 6 7 8 7 8 9 8 8 9 9 9 9 9 9 9 9 9 9 8 9 9 8 9 11 11 10 11 12 13 14 14 14 13 13 13 14 14 14 14 15 16 16 16 16 15 15 16 17 17 16 15 16 15 14 13 13 12 12 12 12
12 12 11 10 11 11 10 11 11 10 10 10 10 10 11 11 11 9 10 10 9 8 8 8 8 8 8 9 9 10 10 9 10 10 10 10 11 11 10 11 10 9 10 9 9 9 8 8 9 8 9 11 11 10 11 11 12 12 12 10 10 12 12 13 13 13 13 13 13 14 15 15 15 15 15 15 16 15 15 15 14 14 13 13 13 13 14 14
Wind_Direction
11 9 7 4 2 0 359 358 357 354 352 350 348 346 344 342 339 337 333 329 327 326 326 325 323 322 320 317 314 314 315 310 307 300 292 291 286 281 274 267 265 262 258 252 248 249 249 247 238 230 228 231 229 230 231 227 225 223 217 216 223 215 205 200 204 242 248 236 228 227 217 192 214 226 189 116 48 56 40 32 32 68 101 142 152 170 196 211
10 8 5 3 1 359 357 356 355 353 351 349 347 344 341 339 336 334 330 326 323 321 322 321 322 323 322 320 317 319 317 311 309 302 293 292 287 279 272 266 262 257 251 246 248 243 242 245 244 237 227 230 230 225 228 226 221 218 214 215 219 210 203 214 230 250 243 229 227 234 231 213 215 219 201 177 141 118 92 31 44 105 123 158 170 190 205 210
9 7 4 2 360 358 355 354 353 352 350 348 346 343 340 337 334 333 330 325 322 320 320 320 322 323 324 324 322 324 322 318 317 309 302 296 286 279 277 271 261 254 250 247 247 242 244 247 246 240 229 228 230 225 222 224 223 218 215 217 221 211 208 230 254 247 227 214 211 215 221 217 217 220 196 177 192 191 192 241 239 217 218 232 240 231 228 226
7 5 3 0 358 356 354 352 351 350 349 347 345 343 340 337 336 334 331 328 326 323 323 323 325 327 328 327 327 327 326 330 327 318 318 310 294 288 285 278 261 253 253 250 249 249 252 251 245 238 230 228 230 225 220 224 224 218 214 217 220 208 211 237 232 188 175 168 179 194 201 208 217 225 206 190 214 263 254 231 212 203 218 227 230 229 228 210
4 3 1 359 357 355 353 351 350 349 348 346 345 343 341 339 338 335 333 331 330 330 329 330 332 334 335 333 333 331 333 344 333 325 329 321 304 294 292 287 265 256 259 257 259 260 255 250 245 237 227 223 224 219 221 222 220 225 222 222 221 205 213 239 207 187 176 168 172 186 204 209 216 282 257 208 236 247 220 194 186 183 204 216 217 216 205 184
2 1 360 358 357 354 352 350 349 348 348 347 346 344 344 342 340 338 336 335 336 338 339 340 343 345 342 340 342 343 351 347 333 335 337 324 309 294 293 293 282 275 273 270 268 263 255 251 253 244 228 222 219 215 226 225 217 227 229 227 224 211 221 232 200 193 187 182 188 197 192 179 171 328 315 328 236 223 200 187 187 187 187 184 191 194 187 174
359 358 358 357 356 353 351 350 349 348 348 348 347 346 346 344 344 343 341 343 346 350 353 355 356 354 350 350 355 360 4 343 336 351 349 335 320 298 295 297 306 305 286 277 267 259 259 262 260 246 231 229 224 224 239 233 219 222 224 225 221 220 229 213 198 197 186 185 193 181 177 187 189 266 288 339 189 204 206 214 215 216 204 186 175 175 178 170
357 356 356 356 355 352 351 349 349 349 349 348 348 349 348 347 348 348 350 354 359 6 8 7 3 1 0 2 3 4 5 351 352 8 9 4 345 320 316 316 315 302 281 271 263 260 263 260 252 236 227 234 231 235 247 238 224 221 223 224 220 229 219 191 192 196 192 195 189 174 178 199 179 206 271 270 216 214 221 229 230 229 221 201 181 171 177 169
356 355 354 354 353 352 350 349 349 349 349 350 350 350 351 350 351 354 359 2 9 13 8 8 4 4 7 8 10 7 4 7 18 27 33 32 13 349 338 338 330 310 294 279 271 268 264 254 243 228 226 232 234 244 249 236 229 226 226 225 224 225 186 178 190 195 201 203 183 177 190 190 188 222 280 262 222 217 215 219 228 221 210 201 190 182 182 173
354 354 353 352 352 351 350 349 349 350 350 351 351 352 353 352 353 359 4 6 9 6 4 6 0 3 9 11 16 12 5 24 37 37 40 39 27 6 340 334 330 313 297 288 287 279 263 253 247 238 231 232 241 249 238 222 233 233 225 219 220 216 181 180 195 196 203 211 189 195 218 220 238 256 264 246 223 206 195 193 212 207 194 194 191 186 185 182
353 353 352 352 352 350 350 349 349 350 351 351 351 352 353 352 354 359 3 2 360 359 358 355 352 360 8 12 17 8 7 30 35 30 31 30 30 19 356 340 330 312 294 289 296 298 284 265 252 235 231 240 252 253 241 230 233 231 219 210 216 214 187 182 198 206 215 225 202 198 234 258 262 257 239 228 223 208 203 210 210 199 194 191 186 186 186 185
351 352 351 351 350 350 349 349 349 350 351 352 352 352 353 354 353 356 358 353 352 354 352 349 349 355 4 12 13 7 13 25 20 16 16 18 22 22 14 3 341 316 308 304 303 305 301 280 251 227 233 241 249 250 251 245 233 224 206 199 210 208 196 198 211 213 217 223 214 214 255 270 260 240 222 221 218 209 210 218 214 201 198 193 185 188 188 187
349 350 350 350 349 349 349 349 349 350 351 352 352 352 354 354 352 353 354 351 352 350 345 346 346 350 360 4 3 8 12 12 17 10 2 5 3 4 11 9 358 339 322 314 310 309 304 276 234 238 246 239 246 247 250 248 232 224 211 202 207 206 215 235 227 210 218 235 240 251 252 257 260 231 213 219 210 202 209 214 212 202 198 195 191 192 192 192
348 349 349 349 349 349 349 349 349 350 351 352 353 354 353 354 353 352 355 353 350 345 344 348 349 355 359 352 352 3 8 18 26 12 2 3 353 352 360 3 360 359 347 329 325 320 312 265 215 251 257 236 245 255 257 248 230 223 217 209 206 202 220 241 226 207 234 251 240 240 239 238 249 233 208 212 201 189 201 209 207 203 200 197 197 195 195 197
346 347 348 348 348 349 349 348 348 350 352 353 355 354 353 354 352 352 354 350 345 341 343 348 351 356 355 347 352 4 10 23 20 8 11 9 0 0 2 359 358 5 8 2 1 360 13 51 191 266 273 256 251 261 264 247 233 225 215 217 215 205 214 227 221 212 229 242 225 224 237 233 238 230 212 213 203 184 190 205 207 207 201 193 196 196 196 201
344 345 346 347 347 348 348 347 347 349 352 354 355 353 351 348 345 342 338 335 337 332 337 347 350 354 355 352 357 2 5 15 13 17 27 28 28 22 15 15 13 12 5 9 28 41 47 59 84 333 304 292 256 254 278 259 248 238 217 220 222 210 214 220 225 231 220 241 260 241 230 234 235 227 218 220 209 193 201 211 210 208 200 190 192 196 197 203
342 343 344 345 346 346 346 346 346 347 351 353 352 349 343 338 333 328 326 327 324 316 321 333 342 347 348 353 358 -0 11 29 28 27 30 37 44 31 23 23 16 13 8 15 38 46 40 46 22 352 356 32 66 143 350 295 254 244 225 223 226 215 216 220 228 252 244 238 255 236 224 233 230 220 220 223 214 209 219 219 215 212 208 205 201 199 202 206
339 340 342 343 344 344 344 343 343 345 347 347 346 343 336 331 325 319 325 330 323 322 322 323 342 352 338 344 351 354 21 40 31 20 14 19 21 15 18 17 7 7 9 15 29 41 36 19 20 24 17 20 24 105 51 283 213 222 223 218 226 218 216 223 229 250 265 235 230 228 226 221 219 220 222 226 222 221 228 224 218 215 214 213 207 203 206 208
336 338 339 341 342 342 341 341 340 341 342 343 344 343 341 338 332 325 330 330 327 331 326 315 338 352 335 338 343 351 17 29 20 12 2 355 351 354 3 2 358 2 10 15 9 17 36 5 7 17 339 332 264 181 220 224 182 196 213 206 215 215 217 223 225 235 245 240 233 223 219 216 216 222 223 227 230 229 232 227 218 214 214 213 209 208 210 211
334 336 337 338 339 339 338 337 336 336 338 341 344 346 348 346 340 331 330 327 318 312 310 301 292 302 322 337 332 328 337 347 359 356 348 352 351 352 356 351 347 349 355 12 349 349 40 13 344 316 299 276 234 229 204 185 155 170 194 224 212 206 214 221 225 238 232 229 239 225 215 220 217 220 223 221 222 223 219 214 208 204 205 210 212 212 211 212
331 334 334 335 337 337 336 334 332 332 334 339 344 346 348 348 341 328 327 323 312 301 302 301 286 281 300 329 333 329 322 326 342 340 331 342 351 356 358 360 358 339 311 317 354 354 21 4 321 287 271 278 285 209 153 126 112 131 78 300 208 197 206 214 217 237 232 215 237 225 211 219 216 216 216 205 206 217 207 196 198 199 202 208 211 211 209 208
329 331 332 333 334 335 334 332 331 330 332 337 343 343 340 345 339 325 326 318 309 304 300 304 296 279 286 316 335 8 357 332 340 346 341 342 351 358 1 14 15 341 306 71 32 4 357 334 301 288 286 313 315 154 126 71 94 111 65 68 156 183 192 211 213 218 226 208 217 217 209 212 213 214 211 202 204 213 202 188 187 189 192 195 198 201 202 202
325 328 330 330 331 332 331 331 330 329 332 336 339 337 335 337 332 326 327 315 304 304 301 303 302 279 288 305 301 341 355 340 342 348 352 355 351 356 5 13 9 360 45 99 45 12 2 307 286 300 318 6 16 112 116 69 83 123 101 82 110 156 159 185 200 188 202 194 184 197 198 197 206 215 212 210 212 212 200 188 182 182 184 184 185 190 193 198
321 324 327 327 326 328 328 328 331 330 330 332 334 334 334 333 331 328 324 312 302 305 300 297 297 273 284 299 292 314 329 327 331 331 351 3 353 349 6 13 16 24 48 73 46 34 19 292 296 340 345 40 58 70 116 108 107 148 149 118 127 148 149 161 172 157 154 184 174 163 151 189 200 205 213 221 227 219 202 194 189 190 191 184 183 190 194 199
318 320 322 325 323 323 323 325 333 333 328 330 330 330 332 332 332 333 325 316 306 303 303 306 298 262 287 312 305 313 316 312 317 320 350 11 16 8 12 19 30 35 44 61 55 46 25 349 11 30 358 40 85 74 119 131 137 177 197 179 164 168 171 175 177 156 122 216 200 162 146 221 214 205 213 223 227 219 208 207 203 201 198 188 187 195 202 210
315 315 318 322 321 320 320 321 329 331 328 327 327 326 326 325 330 333 329 330 313 294 295 312 303 275 293 297 290 314 327 304 298 314 345 16 41 57 40 23 34 40 45 66 52 37 27 18 29 60 16 29 84 105 176 142 129 206 218 194 186 197 209 206 195 185 190 219 212 177 166 217 235 223 221 220 221 221 218 218 215 210 204 198 198 203 209 219
313 313 315 317 319 320 317 318 324 327 325 321 323 325 322 321 328 330 333 345 325 297 290 298 311 314 302 285 285 332 325 290 298 331 326 14 38 49 55 21 33 32 31 51 36 25 34 27 35 59 49 49 92 118 184 139 121 223 226 189 195 236 246 220 194 192 206 208 225 213 178 194 241 241 233 221 219 225 227 227 226 220 214 210 211 216 218 223
312 311 312 313 316 314 310 315 322 322 319 316 320 324 323 324 327 330 347 343 313 304 294 287 299 321 317 299 297 312 293 272 302 322 306 224 14 34 55 7 32 15 19 61 47 357 18 25 47 72 56 75 153 202 182 137 132 240 229 183 191 280 260 190 171 186 209 188 233 239 205 216 257 262 252 227 220 230 234 232 228 225 224 223 226 228 227 230
311 310 309 311 311 304 302 311 315 316 315 316 320 323 323 328 327 333 347 308 297 307 294 290 296 306 313 305 286 281 280 266 265 303 309 192 270 19 48 304 12 356 355 65 76 356 18 34 105 112 87 103 191 226 173 136 152 231 198 150 58 16 65 133 151 181 212 186 221 230 221 245 271 276 264 234 228 237 242 239 231 228 231 234 236 234 233 237
310 309 308 309 306 298 297 304 307 312 316 317 319 321 326 330 331 342 333 287 290 304 293 294 300 303 313 312 292 280 260 244 262 293 301 261 293 353 342 318 18 27 355 31 72 29 14 28 48 123 145 158 157 209 165 145 175 162 68 80 46 16 62 123 161 174 158 242 237 233 229 237 273 276 259 242 244 242 241 242 235 232 235 237 237 234 234 241
310 309 307 305 300 295 296 299 304 312 317 317 319 324 331 333 342 353 312 284 292 302 300 297 298 303 310 306 293 287 249 240 262 286 282 282 315 344 353 359 9 26 12 23 47 357 1 20 32 127 175 165 125 103 337 181 171 92 76 82 82 316 325 61 283 240 186 247 249 242 241 240 260 270 267 262 262 242 224 233 235 233 233 233 233 232 235 242
311 309 306 300 295 293 293 295 303 313 317 319 325 328 331 336 339 323 295 302 302 296 301 297 293 295 294 287 276 269 251 243 262 279 268 265 278 277 256 264 344 30 25 39 32 357 2 6 14 74 48 64 118 105 356 52 96 97 81 53 103 298 327 298 278 266 238 249 254 253 262 269 263 268 269 260 260 245 218 219 225 226 226 229 232 234 238 243
312 310 306 298 292 292 292 293 302 313 317 319 326 329 337 342 321 301 300 310 295 289 306 304 300 299 291 281 262 259 258 240 253 272 257 254 272 254 251 270 230 110 130 313 19 6 3 336 355 50 10 47 125 131 110 120 118 110 279 209 158 151 26 279 266 265 262 268 275 266 263 278 279 281 274 249 242 236 208 201 210 217 221 225 229 233 237 240
313 309 303 295 292 290 289 292 300 311 317 320 325 332 345 334 303 301 308 303 291 299 311 308 307 307 291 257 235 248 270 244 246 262 253 274 294 225 238 290 276 131 162 328 360 34 32 342 284 200 293 102 141 155 149 146 209 267 258 150 165 176 168 240 247 238 254 275 292 279 256 266 265 276 283 251 227 222 197 196 211 221 223 222 226 229 233 239
313 306 299 295 295 292 288 287 295 310 317 320 326 332 338 316 299 306 300 291 299 310 314 315 317 317 291 240 234 254 256 244 258 268 242 242 247 220 223 246 248 246 50 359 287 287 46 294 257 255 243 176 183 194 162 115 280 269 278 97 209 213 188 238 233 216 238 285 296 270 253 263 258 275 299 306 207 209 185 192 213 229 227 220 224 231 234 241
311 305 300 295 292 293 293 290 295 312 317 322 332 326 312 298 296 301 296 297 306 312 320 329 336 341 301 227 252 299 276 250 271 275 247 242 241 233 232 243 250 250 261 281 267 261 264 261 262 282 272 224 208 210 198 172 222 257 264 223 249 228 146 201 251 268 309 302 283 267 273 288 290 287 300 323 161 223 208 201 208 220 220 218 228 235 237 242
308 306 300 290 285 285 290 292 297 309 316 325 326 305 294 297 301 300 301 310 316 319 335 334 316 336 327 242 288 317 303 277 282 271 251 249 248 245 244 255 269 263 258 272 266 243 230 255 258 239 247 263 239 211 233 225 208 215 221 225 244 311 327 211 257 308 325 286 279 280 281 289 295 287 294 303 252 243 246 229 215 219 222 225 233 235 236 240
303 303 296 286 280 274 278 288 294 304 316 323 309 294 295 302 303 300 302 317 326 330 337 308 283 291 303 275 281 299 304 302 299 280 258 249 246 254 251 253 280 284 270 277 274 249 230 257 264 248 246 269 278 313 276 264 243 215 220 234 240 260 271 261 266 284 283 275 283 294 293 282 274 276 280 272 251 246 250 241 233 237 237 235 236 235 236 239
299 298 292 286 278 267 273 287 293 304 317 314 296 294 300 303 300 298 303 319 333 336 318 285 283 286 280 267 266 278 290 304 308 299 269 248 242 258 263 252 267 289 293 295 263 250 247 249 257 257 252 258 272 284 265 266 268 248 244 268 268 247 245 260 267 260 257 267 278 294 301 285 274 272 266 262 256 246 248 255 256 250 246 245 241 237 236 238
299 294 285 281 274 270 281 291 294 302 305 289 281 287 288 290 296 293 299 317 333 341 315 287 287 282 274 271 268 268 274 288 301 306 287 262 247 258 276 266 256 277 308 315 280 263 270 260 255 262 264 252 250 250 244 252 261 253 251 264 270 267 264 271 274 264 256 261 267 283 290 283 280 273 262 264 264 254 251 260 266 262 258 256 246 237 236 239
305 298 283 279 277 278 287 290 284 281 279 277 280 287 281 277 287 286 293 316 329 330 320 303 295 280 270 273 271 265 271 281 290 294 286 284 257 248 270 275 256 261 285 296 292 284 277 270 265 265 265 254 244 244 254 260 255 244 247 254 258 265 266 269 273 271 268 266 264 270 279 281 282 277 268 267 266 263 255 255 264 267 263 258 248 238 236 239
313 300 282 284 287 284 285 280 273 268 265 272 275 278 278 275 287 288 293 315 325 326 328 321 311 300 281 271 262 257 264 274 284 290 281 286 274 245 253 268 261 254 263 273 280 282 279 278 276 268 260 253 251 258 268 267 254 246 254 257 261 268 264 256 261 267 271 276 274 274 278 281 280 275 269 267 267 267 261 259 265 265 257 251 246 242 242 244
320 301 285 288 288 285 283 274 273 270 264 273 277 277 281 281 288 294 299 311 317 324 332 322 318 324 295 274 262 258 261 263 272 277 268 271 267 244 244 259 272 272 272 275 281 288 289 285 280 276 269 262 262 267 272 268 254 260 272 271 267 271 265 252 254 261 264 270 274 277 280 281 280 275 269 270 273 273 267 263 265 265 261 255 250 250 252 251
316 301 293 295 287 278 271 258 256 255 262 280 287 282 284 282 281 287 286 289 294 304 317 312 313 318 297 282 274 268 262 257 264 274 269 261 256 252 257 271 276 275 274 271 274 283 285 279 278 282 282 276 269 269 273 274 265 264 275 277 272 274 276 268 264 266 266 264 264 269 276 280 281 279 275 277 279 276 274 271 267 267 266 264 262 260 257 255
311 300 298 302 289 271 260 247 241 246 257 274 280 274 278 283 283 282 274 272 276 281 293 298 301 305 301 301 298 284 266 248 256 270 275 271 268 271 278 281 277 278 277 274 278 283 278 273 271 268 264 259 254 257 266 272 272 271 276 279 276 274 277 275 271 269 267 265 261 262 272 280 284 282 281 281 277 275 278 279 276 272 267 264 264 263 260 259
308 296 295 301 298 282 264 258 260 262 262 269 274 271 270 273 279 281 277 275 275 275 282 289 297 304 307 312 308 292 278 262 260 268 276 278 275 272 273 274 274 273 273 277 289 291 284 278 271 256 249 249 249 253 260 265 269 272 275 279 278 272 269 271 272 268 265 267 269 267 270 278 282 281 279 276 271 270 277 278 276 274 270 265 263 261 259 259
300 289 289 291 289 284 276 277 290 283 271 265 264 266 266 270 277 281 280 277 272 272 281 289 296 299 294 299 302 288 282 284 280 272 273 275 270 272 277 279 277 275 274 283 292 294 294 289 276 259 256 256 252 257 264 267 267 268 270 273 275 274 272 270 270 267 265 270 274 272 270 273 276 276 273 272 270 272 276 274 270 271 271 267 265 262 258 256
294 285 283 279 271 266 267 277 287 285 275 268 262 263 265 266 269 272 275 278 276 273 279 287 292 288 273 269 279 283 284 289 285 272 269 272 274 280 287 287 286 286 286 290 294 293 293 287 276 268 269 268 263 265 271 273 271 270 271 271 273 274 272 270 269 267 263 265 269 269 267 268 272 272 269 269 270 270 272 271 269 271 271 267 264 260 255 252
291 283 281 281 274 266 264 271 278 279 275 270 265 265 262 258 261 266 269 276 282 279 275 276 280 282 279 274 274 278 278 278 279 274 270 273 276 278 283 284 285 289 290 292 294 294 292 284 278 277 283 282 277 275 277 279 278 275 273 271 270 270 269 269 271 269 265 265 267 268 268 269 271 270 268 268 268 269 272 273 272 271 268 263 258 253 250 247
288 283 281 281 277 271 270 272 273 274 275 272 267 265 264 260 265 273 272 267 271 277 276 268 268 273 280 281 276 271 266 258 262 267 266 273 277 275 275 274 275 286 294 293 293 297 293 283 280 285 290 287 283 282 283 282 279 277 276 274 273 275 274 272 271 271 269 269 270 270 272 274 274 271 270 270 269 270 273 273 271 268 262 255 252 250 247 245
280 279 279 277 273 271 273 273 270 268 269 268 265 267 268 265 264 270 274 268 261 265 267 263 263 271 279 280 276 271 265 259 259 262 262 268 271 269 272 270 267 280 290 287 287 292 289 286 289 293 289 284 284 288 289 287 285 282 279 278 280 283 280 275 271 269 268 269 271 274 275 275 275 274 274 274 272 270 269 268 266 262 257 251 249 249 248 247
280 277 275 274 270 269 271 270 268 265 261 262 267 270 269 267 266 266 272 274 269 263 262 258 259 269 277 277 275 272 269 267 270 271 271 273 273 270 271 269 264 266 273 276 281 283 282 286 290 287 283 282 283 289 294 296 296 288 276 272 279 284 284 282 280 274 269 268 270 271 272 273 274 275 276 276 276 272 268 267 264 258 253 249 248 250 252 253